• In Uzbekistan
  • List of Countries
  • For 7 days
  • Water Temperature
  • Weather Map
  • Weather Widgets
  • user-avatar
    Login

    Hourly Weather San Luis

    Today, 21 September, Saturday

    Time Temperature Precipitation Wind Pressure Humidity
    00:00 +12°C° 0 mm 5 mps 701 mmHg 15%
    01:00 +10°C° 0 mm 5 mps 701 mmHg 14%
    02:00 +10°C° 0 mm 6 mps 701 mmHg 13%
    03:00 +10°C° 0 mm 6 mps 701 mmHg 15%
    04:00 +10°C° 0 mm 6 mps 701 mmHg 17%
    05:00 +10°C° 0 mm 7 mps 701 mmHg 18%
    06:00 +11°C° 0 mm 7 mps 702 mmHg 18%
    07:00 +12°C° 0 mm 7 mps 702 mmHg 17%
    08:00 +15°C° 0 mm 7 mps 703 mmHg 17%
    09:00 +16°C° 0 mm 6 mps 703 mmHg 15%
    10:00 +19°C° 0 mm 5 mps 703 mmHg 13%
    11:00 +21°C° 0 mm 4 mps 704 mmHg 11%
    12:00 +22°C° 0 mm 4 mps 703 mmHg 11%
    13:00 +24°C° 0 mm 3 mps 703 mmHg 10%
    14:00 +25°C° 0 mm 3 mps 702 mmHg 9%
    15:00 +24°C° 0 mm 3 mps 702 mmHg 9%
    16:00 +24°C° 0 mm 2 mps 702 mmHg 10%
    17:00 +24°C° 0 mm 2 mps 701 mmHg 10%
    18:00 +21°C° 0 mm 3 mps 701 mmHg 13%
    19:00 +18°C° 0 mm 4 mps 702 mmHg 16%
    20:00 +15°C° 0 mm 4 mps 702 mmHg 18%
    21:00 +14°C° 0 mm 5 mps 702 mmHg 19%
    22:00 +14°C° 0 mm 6 mps 702 mmHg 21%
    23:00 +13°C° 0 mm 6 mps 703 mmHg 22%

    Tomorrow, 22 September, Sunday

    Time Temperature Precipitation Wind Pressure Humidity
    00:00 +13°C° 0 mm 5 mps 703 mmHg 23%
    01:00 +12°C° 0 mm 5 mps 702 mmHg 25%
    02:00 +11°C° 0 mm 4 mps 702 mmHg 27%
    03:00 +11°C° 0 mm 3 mps 702 mmHg 29%
    04:00 +11°C° 0 mm 3 mps 702 mmHg 32%
    05:00 +11°C° 0 mm 3 mps 702 mmHg 34%
    06:00 +13°C° 0 mm 4 mps 703 mmHg 31%
    07:00 +15°C° 0 mm 5 mps 703 mmHg 28%
    08:00 +17°C° 0 mm 6 mps 704 mmHg 25%
    09:00 +18°C° 0 mm 7 mps 704 mmHg 23%
    10:00 +21°C° 0 mm 7 mps 704 mmHg 22%
    11:00 +22°C° 0 mm 8 mps 704 mmHg 21%
    12:00 +23°C° 0 mm 8 mps 703 mmHg 20%
    13:00 +24°C° 0 mm 8 mps 703 mmHg 20%
    14:00 +26°C° 0 mm 8 mps 702 mmHg 19%
    15:00 +24°C° 0 mm 8 mps 701 mmHg 19%
    16:00 +24°C° 0 mm 8 mps 701 mmHg 20%
    17:00 +24°C° 0 mm 8 mps 700 mmHg 21%
    18:00 +22°C° 0 mm 6 mps 700 mmHg 24%
    19:00 +19°C° 0 mm 5 mps 700 mmHg 27%
    20:00 +17°C° 0 mm 3 mps 700 mmHg 31%
    21:00 +17°C° 0 mm 4 mps 700 mmHg 31%
    22:00 +15°C° 0 mm 4 mps 700 mmHg 31%
    23:00 +15°C° 0 mm 4 mps 700 mmHg 31%

    Day after tomorrow, 23 September, Monday

    Time Temperature Precipitation Wind Pressure Humidity
    00:00 +15°C° 0 mm 5 mps 700 mmHg 31%
    01:00 +14°C° 0 mm 5 mps 700 mmHg 31%
    02:00 +14°C° 0 mm 5 mps 700 mmHg 31%
    03:00 +13°C° 0 mm 5 mps 700 mmHg 32%
    04:00 +13°C° 0 mm 5 mps 700 mmHg 32%
    05:00 +13°C° 0 mm 5 mps 700 mmHg 33%
    06:00 +14°C° 0 mm 5 mps 701 mmHg 31%
    07:00 +15°C° 0 mm 5 mps 702 mmHg 30%
    08:00 +17°C° 0 mm 5 mps 703 mmHg 28%
    09:00 +19°C° 0 mm 4 mps 703 mmHg 26%
    10:00 +21°C° 0 mm 4 mps 704 mmHg 24%
    11:00 +23°C° 0 mm 4 mps 705 mmHg 22%
    12:00 +24°C° 0 mm 3 mps 705 mmHg 21%
    13:00 +25°C° 0 mm 3 mps 704 mmHg 20%
    14:00 +26°C° 0 mm 3 mps 704 mmHg 19%
    15:00 +26°C° 0 mm 3 mps 704 mmHg 19%
    16:00 +26°C° 0 mm 4 mps 704 mmHg 19%
    17:00 +26°C° 0 mm 5 mps 704 mmHg 19%
    18:00 +22°C° 0 mm 4 mps 704 mmHg 23%
    19:00 +20°C° 0 mm 4 mps 704 mmHg 27%
    20:00 +18°C° 0 mm 3 mps 704 mmHg 30%
    21:00 +18°C° 0 mm 3 mps 705 mmHg 31%
    22:00 +17°C° 0 mm 3 mps 705 mmHg 32%
    23:00 +16°C° 0 mm 3 mps 705 mmHg 33%

    24 September, Tuesday

    Time Temperature Precipitation Wind Pressure Humidity
    00:00 +16°C° 0 mm 3 mps 705 mmHg 33%
    01:00 +16°C° 0 mm 3 mps 705 mmHg 33%
    02:00 +14°C° 0 mm 4 mps 705 mmHg 33%
    03:00 +14°C° 0 mm 3 mps 705 mmHg 33%
    04:00 +13°C° 0 mm 3 mps 705 mmHg 33%
    05:00 +13°C° 0 mm 3 mps 705 mmHg 34%
    06:00 +16°C° 0 mm 3 mps 705 mmHg 31%
    07:00 +18°C° 0 mm 3 mps 706 mmHg 28%
    08:00 +20°C° 0 mm 2 mps 707 mmHg 25%
    09:00 +21°C° 0 mm 2 mps 707 mmHg 22%
    10:00 +24°C° 0 mm 2 mps 707 mmHg 20%
    11:00 +26°C° 0 mm 2 mps 707 mmHg 17%
    12:00 +27°C° 0 mm 2 mps 706 mmHg 16%
    13:00 +28°C° 0 mm 2 mps 705 mmHg 15%
    14:00 +28°C° 0 mm 2 mps 705 mmHg 13%
    15:00 +28°C° 0 mm 2 mps 704 mmHg 13%
    16:00 +28°C° 0 mm 1 mps 704 mmHg 13%
    17:00 +29°C° 0 mm 1 mps 703 mmHg 13%
    18:00 +26°C° 0 mm 2 mps 703 mmHg 15%
    19:00 +22°C° 0 mm 3 mps 703 mmHg 18%
    20:00 +20°C° 0 mm 5 mps 703 mmHg 21%
    21:00 +19°C° 0 mm 4 mps 703 mmHg 21%
    22:00 +19°C° 0 mm 4 mps 703 mmHg 21%
    23:00 +18°C° 0 mm 4 mps 703 mmHg 21%

    25 September, Wednesday

    Time Temperature Precipitation Wind Pressure Humidity
    00:00 +18°C° 0 mm 4 mps 703 mmHg 21%
    01:00 +17°C° 0 mm 3 mps 703 mmHg 21%
    02:00 +17°C° 0 mm 3 mps 702 mmHg 21%
    03:00 +17°C° 0 mm 4 mps 702 mmHg 24%
    04:00 +17°C° 0 mm 4 mps 702 mmHg 26%
    05:00 +15°C° 0 mm 5 mps 702 mmHg 28%
    06:00 +17°C° 0 mm 5 mps 703 mmHg 27%
    07:00 +20°C° 0 mm 6 mps 703 mmHg 26%
    08:00 +21°C° 0 mm 6 mps 704 mmHg 25%
    09:00 +23°C° 0 mm 6 mps 704 mmHg 22%
    10:00 +26°C° 0 mm 6 mps 704 mmHg 19%
    11:00 +28°C° 0 mm 6 mps 704 mmHg 16%
    12:00 +29°C° 0 mm 7 mps 703 mmHg 15%
    13:00 +29°C° 0 mm 7 mps 702 mmHg 13%
    14:00 +30°C° 0 mm 7 mps 702 mmHg 11%
    15:00 +30°C° 0 mm 7 mps 701 mmHg 12%
    16:00 +30°C° 0 mm 7 mps 700 mmHg 12%
    17:00 +29°C° 0 mm 7 mps 700 mmHg 12%
    18:00 +27°C° 0 mm 6 mps 699 mmHg 15%
    19:00 +23°C° 0 mm 5 mps 699 mmHg 18%
    20:00 +21°C° 0 mm 4 mps 699 mmHg 21%
    21:00 +20°C° 0 mm 4 mps 699 mmHg 21%
    22:00 +20°C° 0 mm 5 mps 699 mmHg 21%
    23:00 +19°C° 0 mm 5 mps 699 mmHg 21%

    26 September, Thursday

    Time Temperature Precipitation Wind Pressure Humidity
    00:00 +19°C° 0 mm 6 mps 698 mmHg 22%
    01:00 +18°C° 0 mm 7 mps 698 mmHg 24%
    02:00 +18°C° 0 mm 8 mps 698 mmHg 26%
    03:00 +17°C° 0 mm 7 mps 698 mmHg 27%
    04:00 +17°C° 0 mm 7 mps 698 mmHg 29%
    05:00 +16°C° 0 mm 7 mps 698 mmHg 31%
    06:00 +17°C° 0 mm 7 mps 698 mmHg 29%
    07:00 +20°C° 0 mm 7 mps 698 mmHg 27%
    08:00 +21°C° 0 mm 7 mps 699 mmHg 25%
    09:00 +23°C° 0 mm 7 mps 699 mmHg 23%
    10:00 +24°C° 0 mm 7 mps 699 mmHg 20%
    11:00 +27°C° 0 mm 6 mps 699 mmHg 18%
    12:00 +28°C° 0 mm 6 mps 698 mmHg 17%
    13:00 +29°C° 0 mm 6 mps 697 mmHg 16%
    14:00 +30°C° 0 mm 6 mps 697 mmHg 15%
    15:00 +30°C° 0 mm 6 mps 696 mmHg 16%
    16:00 +30°C° 0 mm 6 mps 695 mmHg 16%
    17:00 +29°C° 0 mm 6 mps 694 mmHg 17%
    18:00 +27°C° 0 mm 5 mps 694 mmHg 19%
    19:00 +25°C° 0 mm 5 mps 694 mmHg 22%
    20:00 +22°C° 0 mm 5 mps 694 mmHg 25%
    21:00 +22°C° 0 mm 6 mps 694 mmHg 25%
    22:00 +22°C° 0 mm 6 mps 693 mmHg 25%
    23:00 +22°C° 0 mm 7 mps 693 mmHg 25%
    Show more